Flag for Malaysia Weather past 2 weeks in Kuala Lumpur, Malaysia

Now
91 °F

Partly sunny.


Feels Like: 99 °F
Forecast: 73 / 95 °F
Wind: 10 mph from South

Location: Sultan Abdul Aziz Shah-Subang

Current Time: Jul 25, 2014 at 1:19:22 PM

Latest Report: Jul 25, 2014 at 12:00 PM


Visibility: 4 mi

Pressure: 29.83 "Hg

Humidity: 52%

Dew point: 72 °F

Location of Kuala LumpurLocation

Historic Weather in Kuala Lumpur — Graph

°F

Kuala Lumpur temperature yesterday

Maximum temperature yesterday: 93 °F (at 1:00 PM)
Minimum temperature yesterday: 79 °F (at 7:00 AM)
Average temperature yesterday: 86 °F

Past Weeks' High & Low Weather Summary

 TemperatureHumidityPressure
High95 °F (Jul 15, 3:00 PM)94% (Jul 11, 2:00 PM)29.89 "Hg (Jul 11, 2:00 PM)
Low75 °F (Jul 20, 6:00 AM)32% (Jul 19, 3:00 PM)29.68 "Hg (Jul 10, 5:00 PM)
Average86 °F69%29.80 "Hg
* Reported Jul 10 12:00 Noon — Jul 25 12:00 Noon, Kuala Lumpur, Weather by CustomWeather, © 2014

Note: Actual official high and low records may vary slightly from our data, if they occured in-between our weather recording intervals... More about our weather records

Advertising

Kuala Lumpur weather history for previous 24 hours

 ConditionsComfort  
Time TempWeatherWind HumidityBarometerVisibility
12:00 PM
Jul 25
91 °FPartly sunny.10 mph52%29.83 "Hg4 mi
11:00 AM90 °FBroken clouds.13 mph52%29.86 "Hg4 mi
10:00 AM88 °FBroken clouds.12 mph55%29.86 "Hg5 mi
9:00 AM84 °FBroken clouds.9 mph66%29.86 "Hg5 mi
8:00 AM82 °FBroken clouds.7 mph74%29.83 "Hg5 mi
7:00 AM81 °FPartly cloudy.3 mph79%29.83 "Hg5 mi
6:00 AM81 °FPartly cloudy.1 mph79%29.80 "Hg5 mi
5:00 AM81 °FPartly cloudy.1 mph79%29.80 "Hg5 mi
4:00 AM81 °FPartly cloudy.No wind79%29.80 "Hg5 mi
3:00 AM81 °FPartly cloudy.No wind79%29.80 "Hg5 mi
2:00 AM82 °FPartly cloudy.1 mph74%29.83 "Hg5 mi
1:00 AM82 °FPartly cloudy.1 mph74%29.83 "Hg5 mi
12:00 AM84 °FPartly cloudy.2 mph70%29.83 "Hg5 mi
11:00 PM
Jul 24
84 °FPartly cloudy.2 mph70%29.83 "Hg5 mi
10:00 PM84 °FPassing clouds.No wind74%29.83 "Hg5 mi
9:00 PM86 °FPartly cloudy.No wind70%29.80 "Hg5 mi
8:00 PM88 °FPassing clouds.2 mph62%29.77 "Hg5 mi
7:00 PM90 °FPartly sunny.6 mph55%29.77 "Hg5 mi
6:00 PM90 °FPartly sunny.7 mph55%29.74 "Hg5 mi
5:00 PM90 °FBroken clouds.9 mph55%29.74 "Hg5 mi
4:00 PM91 °FPartly sunny.8 mph49%29.77 "HgN/A
3:00 PM93 °FBroken clouds.12 mph49%29.77 "HgN/A
2:00 PM91 °FPartly sunny.14 mph52%29.80 "HgN/A
1:00 PM93 °FBroken clouds.13 mph53%29.80 "HgN/A
Weather by CustomWeather, © 2014

See weather overviewHow to use our weather pages